Weather History for Marion-Critt Cnty AP, Marion,, KY

Change the Weather History Date:

Thursday, January 23, 2014

  Actual Average (KPAH) Record (KPAH)
Temperature  
Mean Temperature 13 °F 35 °F  
Max Temperature 22 °F 44 °F 73 °F (1967)
Min Temperature 4 °F 26 °F -10 °F (1963)
Degree Days  
Heating Degree Days 52 30  
Month to date heating degree days 707  
Since 1 July heating degree days 2338  
Cooling Degree Days 0 0  
Month to date cooling degree days 0  
Year to date cooling degree days 0  
Moisture  
Dew Point -1 °F    
Average Humidity 61    
Maximum Humidity 80    
Minimum Humidity 47    
Precipitation  
Precipitation 0.00 in 0.11 in 0.92 in (2002)
Month to date precipitation 2.71  
Year to date precipitation 2.71  
Snow  
Snow 0.00 in 0.10 in 1.00 in (1977)
Month to date snowfall 2.1  
Since 1 July snowfall 4.4  
Snow Depth -    
Sea Level Pressure  
Sea Level Pressure 30.56 in    
Wind  
Wind Speed 9 mph (NNW)    
Max Wind Speed 14 mph    
Max Gust Speed 24 mph    
Visibility 10 miles    
Events      
T = Trace of Precipitation, MM = Missing Value Source: NWS Daily Summary

Daily Weather History Graph

Daily Weather History Graph

Search for Another Location

Airport:

Trip Planner

Search our weather history database for the weather conditions in past years. The results will help you decide how hot, cold, wet, or windy it might be!

Date:

Astronomy

Jan. 23, 2014 Rise Set
Actual Time 7:01 AM CST 5:07 PM CST
Civil Twilight 6:33 AM CST 5:35 PM CST
Nautical Twilight 6:02 AM CST 6:06 PM CST
Astronomical Twilight 5:31 AM CST 6:37 PM CST
Moon No Moon Rise 10:46 AM CST (1/23)
Length of Visible Light 11h 01m
Length of Day
10h 05m
Waning Gibbous, 55% of the Moon is Illuminated
Jan 23
Waning Gibbous
Jan 23
Last Quarter
Jan 30
New
Feb 6
First Quarter
Feb 14
Full

Hourly Weather History & Observations

Time (CST) Temp. Windchill Dew Point Humidity Pressure Visibility Wind Dir Wind Speed Gust Speed Precip Events Conditions
12:15 AM 22.1 °F 12.8 °F 13.6 °F 70% 30.21 in 10.0 mi North 8.1 mph - N/A   Scattered Clouds
12:35 AM 20.1 °F 9.5 °F 14.9 °F 80% 30.22 in 10.0 mi North 9.2 mph - N/A   Clear
12:55 AM 19.9 °F 9.3 °F 13.3 °F 75% 30.23 in 10.0 mi NNW 9.2 mph - N/A   Clear
1:15 AM 19.8 °F 8.3 °F 12.6 °F 74% 30.24 in 10.0 mi NNW 10.4 mph - N/A   Scattered Clouds
1:35 AM 19.8 °F 10.8 °F 12.0 °F 72% 30.25 in 10.0 mi NNW 6.9 mph - N/A   Mostly Cloudy
1:55 AM 19.4 °F 11.5 °F 11.5 °F 71% 30.27 in 10.0 mi NNW 5.8 mph - N/A   Scattered Clouds
2:15 AM 19.8 °F 6.5 °F 10.8 °F 68% 30.28 in 10.0 mi North 13.8 mph 19.6 mph N/A   Mostly Cloudy
2:35 AM 18.1 °F 6.3 °F 8.2 °F 65% 30.30 in 10.0 mi NNW 10.4 mph 17.3 mph N/A   Overcast
2:55 AM 16.9 °F 2.8 °F 6.8 °F 65% 30.32 in 10.0 mi NNW 13.8 mph 23.0 mph N/A   Mostly Cloudy
3:15 AM 16.5 °F 3.0 °F 6.8 °F 66% 30.32 in 10.0 mi NNW 12.7 mph 24.2 mph N/A   Scattered Clouds
3:35 AM 15.4 °F 3.0 °F 8.4 °F 74% 30.34 in 10.0 mi NNW 10.4 mph 17.3 mph N/A   Mostly Cloudy
3:55 AM 12.6 °F -1.4 °F 4.1 °F 69% 30.36 in 10.0 mi NNW 11.5 mph 18.4 mph N/A   Mostly Cloudy
4:15 AM 11.3 °F -2.9 °F 2.3 °F 67% 30.38 in 10.0 mi North 11.5 mph 18.4 mph N/A   Scattered Clouds
4:35 AM 10.2 °F -5.0 °F 1.4 °F 68% 30.40 in 10.0 mi NNW 12.7 mph 18.4 mph N/A   Clear
4:55 AM 9.5 °F -5.2 °F 1.4 °F 70% 30.42 in 10.0 mi NNW 11.5 mph 18.4 mph N/A   Mostly Cloudy
5:15 AM 8.6 °F -7.0 °F 0.5 °F 70% 30.43 in 10.0 mi NNW 12.7 mph 17.3 mph N/A   Mostly Cloudy
5:35 AM 7.7 °F -6.6 °F -2.0 °F 65% 30.44 in 10.0 mi NNW 10.4 mph 20.7 mph N/A   Mostly Cloudy
5:55 AM 6.8 °F -8.6 °F -5.1 °F 58% 30.46 in 10.0 mi NNW 11.5 mph - N/A   Scattered Clouds
6:15 AM 5.9 °F -10.5 °F -4.9 °F 61% 30.48 in 10.0 mi NNW 12.7 mph 19.6 mph N/A   Clear
6:35 AM 5.4 °F -9.6 °F -6.3 °F 59% 30.50 in 10.0 mi NNW 10.4 mph 23.0 mph N/A   Clear
6:55 AM 4.8 °F -11.8 °F -6.0 °F 61% 30.51 in 10.0 mi NNW 12.7 mph 18.4 mph N/A   Clear
7:15 AM 4.5 °F -9.8 °F -5.4 °F 64% 30.53 in 10.0 mi NNW 9.2 mph - N/A   Clear
7:35 AM 4.6 °F -7.4 °F -5.6 °F 63% 30.53 in 10.0 mi North 6.9 mph - N/A   Clear
7:55 AM 5.0 °F -5.6 °F -5.3 °F 63% 30.54 in 10.0 mi North 5.8 mph - N/A   Clear
8:15 AM 5.5 °F -10.2 °F -5.4 °F 61% 30.55 in 10.0 mi NNW 11.5 mph 18.4 mph N/A   Clear
8:35 AM 6.3 °F -7.5 °F -4.9 °F 60% 30.56 in 10.0 mi NNW 9.2 mph - N/A   Clear
8:55 AM 8.2 °F -5.1 °F -3.8 °F 58% 30.57 in 10.0 mi North 9.2 mph - N/A   Clear
9:15 AM 7.7 °F -5.8 °F -4.2 °F 58% 30.58 in 10.0 mi NNW 9.2 mph - N/A   Clear
9:35 AM 8.4 °F -4.9 °F -3.6 °F 58% 30.60 in 10.0 mi NW 9.2 mph - N/A   Clear
9:55 AM 9.9 °F -3.1 °F -4.5 °F 52% 30.61 in 10.0 mi NNW 9.2 mph - N/A   Clear
10:15 AM 10.2 °F -5.0 °F -4.4 °F 52% 30.62 in 10.0 mi NW 12.7 mph - N/A   Clear
10:35 AM 11.3 °F -2.2 °F -4.4 °F 49% 30.62 in 10.0 mi NNW 10.4 mph - N/A   Clear
10:55 AM 11.3 °F -2.2 °F -5.4 °F 47% 30.62 in 10.0 mi NNW 10.4 mph 18.4 mph N/A   Clear
11:15 AM 11.8 °F -2.3 °F -3.6 °F 50% 30.62 in 10.0 mi WNW 11.5 mph - N/A   Clear
11:35 AM 12.0 °F 0.5 °F -3.6 °F 50% 30.63 in 10.0 mi NW 8.1 mph 16.1 mph N/A   Clear
11:55 AM 12.0 °F -0.4 °F -3.5 °F 50% 30.62 in 10.0 mi NNW 9.2 mph - N/A   Clear
12:15 PM 12.9 °F 1.6 °F -3.6 °F 48% 30.61 in 10.0 mi North 8.1 mph - N/A   Clear
12:35 PM 13.5 °F 0.5 °F -2.7 °F 49% 30.61 in 10.0 mi WNW 10.4 mph - N/A   Clear
12:55 PM 14.9 °F 0.9 °F -1.7 °F 48% 30.60 in 10.0 mi NNW 12.7 mph 17.3 mph N/A   Clear
1:15 PM 14.7 °F 1.4 °F -2.0 °F 48% 30.60 in 10.0 mi NW 11.5 mph 17.3 mph N/A   Clear
1:35 PM 15.1 °F 1.8 °F -1.3 °F 48% 30.61 in 10.0 mi NNW 11.5 mph 16.1 mph N/A   Clear
1:55 PM 13.6 °F 0.0 °F -3.1 °F 47% 30.61 in 10.0 mi NNW 11.5 mph 16.1 mph N/A   Clear
2:15 PM 13.1 °F 0.9 °F -3.3 °F 48% 30.62 in 10.0 mi NNW 9.2 mph - N/A   Clear
2:35 PM 12.4 °F -2.3 °F -3.1 °F 50% 30.62 in 10.0 mi NNW 12.7 mph - N/A   Clear
2:55 PM 12.4 °F -1.6 °F -2.4 °F 52% 30.63 in 10.0 mi NW 11.5 mph - N/A   Clear
3:15 PM 12.0 °F -1.3 °F -2.6 °F 52% 30.64 in 10.0 mi NW 10.4 mph - N/A   Clear
3:35 PM 12.0 °F -0.4 °F -1.7 °F 54% 30.64 in 10.0 mi NNW 9.2 mph - N/A   Clear
3:55 PM 11.3 °F -1.3 °F -2.6 °F 54% 30.64 in 10.0 mi WNW 9.2 mph - N/A   Clear
4:15 PM 11.1 °F -0.6 °F -2.7 °F 54% 30.65 in 10.0 mi WNW 8.1 mph - N/A   Clear
4:35 PM 10.4 °F 0.8 °F -2.6 °F 56% 30.65 in 10.0 mi NW 5.8 mph - N/A   Clear
4:55 PM 9.5 °F -1.5 °F -2.7 °F 58% 30.66 in 10.0 mi NNW 6.9 mph - N/A   Clear
5:15 PM 9.3 °F -1.7 °F -2.6 °F 59% 30.66 in 10.0 mi NW 6.9 mph - N/A   Clear
5:35 PM 9.0 °F -0.9 °F -2.4 °F 60% 30.67 in 10.0 mi NNW 5.8 mph - N/A   Clear
5:55 PM 8.6 °F -3.7 °F -2.4 °F 61% 30.68 in 10.0 mi NW 8.1 mph - N/A   Clear
6:15 PM 8.6 °F 2.0 °F -2.2 °F 62% 30.68 in 10.0 mi NW 3.5 mph - N/A   Clear
6:35 PM 8.4 °F -1.6 °F -2.2 °F 62% 30.69 in 10.0 mi NW 5.8 mph - N/A   Clear
6:55 PM 8.1 °F -0.5 °F -2.2 °F 63% 30.69 in 10.0 mi NW 4.6 mph - N/A   Clear
7:15 PM 7.7 °F -2.4 °F -2.0 °F 65% 30.70 in 10.0 mi NW 5.8 mph - N/A   Clear
7:35 PM 7.7 °F -0.9 °F -2.2 °F 64% 30.70 in 10.0 mi NW 4.6 mph - N/A   Clear
7:55 PM 7.7 °F -2.4 °F -2.2 °F 64% 30.70 in 10.0 mi NW 5.8 mph - N/A   Clear
8:35 PM 7.2 °F -1.5 °F -2.2 °F 66% 30.70 in 10.0 mi WNW 4.6 mph - N/A   Clear
8:55 PM 6.8 °F -2.0 °F -1.8 °F 68% 30.71 in 10.0 mi NW 4.6 mph - N/A   Clear
9:15 PM 6.6 °F -2.2 °F -2.2 °F 67% 30.71 in 10.0 mi WNW 4.6 mph - N/A   Clear
9:55 PM 5.9 °F - -1.8 °F 70% 30.71 in 10.0 mi Calm Calm - N/A   Clear
10:15 PM 5.7 °F -1.3 °F -1.7 °F 72% 30.72 in 10.0 mi WNW 3.5 mph - N/A   Clear
10:35 PM 5.7 °F -1.3 °F -2.2 °F 70% 30.72 in 10.0 mi WNW 3.5 mph - N/A   Clear
10:55 PM 5.7 °F -1.3 °F -2.2 °F 70% 30.72 in 10.0 mi WNW 3.5 mph - N/A   Clear
11:15 PM 5.7 °F -1.3 °F -2.2 °F 70% 30.72 in 10.0 mi WNW 3.5 mph - N/A   Clear
11:35 PM 5.7 °F - -2.2 °F 70% 30.72 in 10.0 mi Calm Calm - N/A   Clear
11:55 PM 4.6 °F - -1.1 °F 77% 30.71 in 10.0 mi Calm Calm - N/A   Clear